[Date Prev][Date Next][Thread Prev][Thread Next] - [Date Index][Thread Index][Author Index]

2 Line ISS Keps 2-10



ISS
1 25544U 98067A   04040.54482834  .00012500  00000-0  12042-3 0  1572
2 25544  51.6286 260.6439 0007429 145.0117 311.4239 15.66929533298136



----
Via the sarex mailing list at AMSAT.ORG courtesy of AMSAT-NA.
To unsubscribe, send "unsubscribe sarex" to Majordomo@amsat.org



AMSAT Top AMSAT Home